Date String (YYYY-MM-DD hh:mm:ss) UTC,Instrument flags,Ambient pressure (hPa),Sample flow (lpm),Bypass flow (lpm),Sample temperature (°C),Ambient temperature (°C),ASC tube jacket temperature (°C),LED temperature (°C),Box temperature (°C),Sample RH (%),Span deviation,Mass concentration (μg/m³),Mass concentration (μg/m³),Mass concentration (μg/m³)
DateTimeUTC,F1_M11,P_M11,Q1_M11,Q2_M11,T1_M11,T2_M11,T3_M11,T4_M11,T5_M11,U1_M11,ZSPAN_M11,X2_M11,X0_M11,X1_M11
2021-10-21 01:00:00,,0830.4,4.99,0.00,25.3,25.1,00.0,34.0,27.3,14.1,0000.0,0004.89,0016.66,0003.94
2021-10-21 01:01:00,,0830.4,5.01,0.00,25.4,25.2,00.0,34.1,27.4,14.1,0000.0,0004.86,0016.70,0003.94
2021-10-21 01:02:00,,0830.3,4.98,0.00,25.4,25.2,00.0,34.1,27.4,14.1,0000.0,0004.83,0017.68,0003.94
2021-10-21 01:03:00,,0830.4,5.01,0.00,25.5,25.3,00.0,34.2,27.5,14.0,0000.0,0004.80,0017.62,0003.95
2021-10-21 01:04:00,,0830.5,5.00,0.00,25.6,25.3,00.0,34.3,27.6,14.0,0000.0,0004.88,0017.88,0003.96
2021-10-21 01:05:00,,0830.5,4.99,0.00,25.6,25.4,00.0,34.3,27.6,13.9,0000.0,0004.93,0017.09,0003.97
2021-10-21 01:06:00,,0830.4,5.00,0.00,25.7,25.4,00.0,34.4,27.7,13.9,0000.0,0004.94,0017.48,0003.98
2021-10-21 01:07:00,,0830.5,5.00,0.00,25.7,25.5,00.0,34.4,27.7,13.8,0000.0,0004.96,0018.26,0003.98
2021-10-21 01:08:00,,0830.6,4.98,0.00,25.8,25.5,00.0,34.5,27.8,13.8,0000.0,0004.95,0018.24,0003.98
2021-10-21 01:09:00,,0830.6,5.00,0.00,25.8,25.6,00.0,34.5,27.9,13.7,0000.0,0004.95,0017.43,0003.97
2021-10-21 01:10:00,,0830.6,4.99,0.00,25.9,25.7,00.0,34.6,27.9,13.7,0000.0,0004.94,0016.71,0003.97
2021-10-21 01:11:00,,0830.6,5.01,0.00,26.0,25.7,00.0,34.6,28.0,13.7,0000.0,0004.94,0016.65,0003.96
2021-10-21 01:12:00,,0830.6,4.99,0.00,26.0,25.7,00.0,34.7,28.0,13.6,0000.0,0004.95,0017.62,0003.96
2021-10-21 01:13:00,,0830.6,5.00,0.00,26.1,25.8,00.0,34.7,28.1,13.6,0000.0,0004.97,0017.35,0003.96
2021-10-21 01:14:00,,0830.5,5.00,0.00,26.1,25.8,00.0,34.8,28.1,13.6,0000.0,0005.01,0016.87,0003.97
2021-10-21 01:15:00,,0830.6,4.99,0.00,26.1,25.9,00.0,34.8,28.1,13.5,0000.0,0004.97,0016.20,0003.97
2021-10-21 01:16:00,,0830.5,5.00,0.00,26.2,25.9,00.0,34.9,28.2,13.5,0000.0,0004.91,0016.19,0003.95
2021-10-21 01:17:00,,0830.6,5.01,0.00,26.2,25.9,00.0,34.9,28.2,13.4,0000.0,0004.89,0015.38,0003.94
2021-10-21 01:18:00,,0830.6,4.99,0.00,26.2,25.9,00.0,34.9,28.2,13.4,0000.0,0004.90,0014.79,0003.93
2021-10-21 01:19:00,,0830.6,5.02,0.00,26.3,25.9,00.0,35.0,28.2,13.4,0000.0,0004.89,0013.94,0003.93
2021-10-21 01:20:00,,0830.6,4.99,0.00,26.3,26.0,00.0,35.0,28.3,13.4,0000.0,0004.87,0014.43,0003.94
2021-10-21 01:21:00,,0830.6,5.01,0.00,26.3,26.0,00.0,35.1,28.3,13.4,0000.0,0004.88,0015.03,0003.94
2021-10-21 01:22:00,,0830.6,4.99,0.00,26.4,26.0,00.0,35.1,28.3,13.3,0000.0,0004.88,0015.77,0003.93
2021-10-21 01:23:00,,0830.6,5.00,0.00,26.4,26.1,00.0,35.1,28.4,13.3,0000.0,0004.87,0014.86,0003.92
2021-10-21 01:24:00,,0830.6,5.01,0.00,26.5,26.1,00.0,35.2,28.4,13.3,0000.0,0004.85,0013.98,0003.92
2021-10-21 01:25:00,,0830.6,5.00,0.00,26.5,26.1,00.0,35.2,28.4,13.3,0000.0,0004.83,0014.06,0003.91
2021-10-21 01:26:00,,0830.6,5.00,0.00,26.5,26.1,00.0,35.2,28.4,13.2,0000.0,0004.84,0014.81,0003.90
2021-10-21 01:27:00,,0830.6,5.00,0.00,26.5,26.1,00.0,35.3,28.4,13.2,0000.0,0004.82,0014.52,0003.90
2021-10-21 01:28:00,,0830.6,4.99,0.00,26.5,26.1,00.0,35.3,28.5,13.2,0000.0,0004.83,0015.04,0003.91
2021-10-21 01:29:00,,0830.7,5.01,0.00,26.6,26.1,00.0,35.3,28.4,13.2,0000.0,0004.81,0015.16,0003.91
2021-10-21 01:30:00,,0830.8,5.00,0.00,26.6,26.1,00.0,35.4,28.5,13.2,0000.0,0004.76,0015.92,0003.91
2021-10-21 01:31:00,,0830.8,5.00,0.00,26.6,26.2,00.0,35.4,28.5,13.2,0000.0,0004.79,0017.23,0003.90
2021-10-21 01:32:00,,0830.8,4.99,0.00,26.6,26.2,00.0,35.4,28.5,13.2,0000.0,0004.82,0017.75,0003.91
2021-10-21 01:33:00,,0830.8,5.00,0.00,26.6,26.2,00.0,35.5,28.5,13.2,0000.0,0004.86,0017.20,0003.91
2021-10-21 01:34:00,,0830.7,4.98,0.00,26.7,26.2,00.0,35.5,28.6,13.1,0000.0,0004.82,0017.11,0003.91
2021-10-21 01:35:00,,0830.6,5.00,0.00,26.7,26.2,00.0,35.5,28.6,13.1,0000.0,0004.79,0016.89,0003.89
2021-10-21 01:36:00,,0830.6,5.00,0.00,26.7,26.2,00.0,35.5,28.5,13.0,0000.0,0004.76,0016.31,0003.88
2021-10-21 01:37:00,,0830.5,5.00,0.00,26.7,26.2,00.0,35.5,28.6,13.0,0000.0,0004.70,0015.86,0003.87
2021-10-21 01:38:00,,0830.6,5.00,0.00,26.7,26.2,00.0,35.6,28.6,13.0,0000.0,0004.70,0016.23,0003.85
2021-10-21 01:39:00,,0830.6,5.00,0.00,26.7,26.2,00.0,35.6,28.6,13.0,0000.0,0004.70,0016.91,0003.81
2021-10-21 01:40:00,,0830.6,5.01,0.00,26.7,26.1,00.0,35.6,28.5,13.0,0000.0,0004.69,0017.66,0003.77
2021-10-21 01:41:00,,0830.6,5.00,0.00,26.7,26.1,00.0,35.6,28.5,13.0,0000.0,0004.69,0017.10,0003.74
2021-10-21 01:42:00,,0830.6,5.00,0.00,26.7,26.1,00.0,35.6,28.5,13.0,0000.0,0004.63,0016.30,0003.70
2021-10-21 01:43:00,,0830.6,5.00,0.00,26.7,26.1,00.0,35.6,28.5,13.0,0000.0,0004.55,0016.06,0003.64
2021-10-21 01:44:00,,0830.6,5.00,0.00,26.6,26.1,00.0,35.6,28.5,13.0,0000.0,0004.45,0015.43,0003.61
2021-10-21 01:45:00,,0830.6,5.00,0.00,26.7,26.1,00.0,35.6,28.5,13.0,0000.0,0004.39,0015.17,0003.57
2021-10-21 01:46:00,,0830.6,4.99,0.00,26.7,26.1,00.0,35.6,28.5,13.0,0000.0,0004.40,0015.34,0003.56
2021-10-21 01:47:00,,0830.6,5.00,0.00,26.7,26.2,00.0,35.7,28.6,13.0,0000.0,0004.39,0016.03,0003.56
2021-10-21 01:48:00,,0830.6,5.01,0.00,26.7,26.2,00.0,35.7,28.6,12.9,0000.0,0004.40,0015.87,0003.54
2021-10-21 01:49:00,,0830.6,5.00,0.00,26.8,26.2,00.0,35.7,28.6,12.9,0000.0,0004.36,0015.53,0003.52
2021-10-21 01:50:00,,0830.6,4.99,0.00,26.8,26.3,00.0,35.7,28.7,12.9,0000.0,0004.36,0014.45,0003.53
2021-10-21 01:51:00,,0830.6,5.01,0.00,26.8,26.3,00.0,35.7,28.7,12.8,0000.0,0004.40,0013.53,0003.53
2021-10-21 01:52:00,,0830.6,4.99,0.00,26.8,26.3,00.0,35.7,28.7,12.8,0000.0,0004.41,0013.96,0003.51
2021-10-21 01:53:00,,0830.6,5.00,0.00,26.9,26.3,00.0,35.8,28.7,12.7,0000.0,0004.45,0013.97,0003.49
2021-10-21 01:54:00,,0830.6,5.00,0.00,26.9,26.3,00.0,35.8,28.7,12.7,0000.0,0004.52,0015.11,0003.48
2021-10-21 01:55:00,,0830.6,4.99,0.00,26.9,26.3,00.0,35.8,28.8,12.7,0000.0,0004.54,0015.43,0003.47
2021-10-21 01:56:00,,0830.6,5.01,0.00,26.9,26.4,00.0,35.8,28.8,12.8,0000.0,0004.56,0016.14,0003.47
2021-10-21 01:57:00,,0830.6,5.00,0.00,26.9,26.4,00.0,35.8,28.8,12.7,0000.0,0004.56,0016.49,0003.47
2021-10-21 01:58:00,,0830.6,5.01,0.00,26.9,26.4,00.0,35.8,28.8,12.7,0000.0,0004.59,0016.67,0003.45
2021-10-21 01:59:00,,0830.6,4.98,0.00,26.9,26.4,00.0,35.9,28.8,12.7,0000.0,0004.59,0016.50,0003.46
